Weather History for Philip, SD

Change the Weather History Date:

Thursday, June 27, 2013

  Actual Average Record
Temperature  
Mean Temperature 76 °F 70 °F  
Max Temperature 92 °F 85 °F 107 °F (1970)
Min Temperature 59 °F 56 °F 44 °F (1951)
Degree Days  
Heating Degree Days 0 1  
Month to date heating degree days 64 61  
Since 1 June heating degree days 64 61  
Since 1 July heating degree days 7086 7195  
Cooling Degree Days 11 6  
Month to date cooling degree days 107 103  
Year to date cooling degree days 128 130  
Since 1 June cooling degree days 107 103  
Growing Degree Days 26 (Base 50)    
Moisture  
Dew Point 56 °F    
Average Humidity 59    
Maximum Humidity 90    
Minimum Humidity 28    
Precipitation  
Precipitation 0.00 in 0.10 in 2.43 in (1952)
Month to date precipitation 1.90 2.67  
Year to date precipitation 7.46 9.59  
Sea Level Pressure  
Sea Level Pressure 29.99 in    
Wind  
Wind Speed 8 mph (WNW)    
Max Wind Speed 21 mph    
Max Gust Speed 24 mph    
Visibility 10 miles    
Events      
T = Trace of Precipitation, MM = Missing Value Source: NWS Daily Summary

Daily Weather History Graph

Daily Weather History Graph

Search for Another Location

Airport:

Trip Planner

Search our weather history database for the weather conditions in past years. The results will help you decide how hot, cold, wet, or windy it might be!

Date:

Astronomy

Jun. 27, 2013 Rise Set
Actual Time 5:05 AM MDT 8:33 PM MDT
Civil Twilight 4:29 AM MDT 9:09 PM MDT
Nautical Twilight 3:41 AM MDT 9:57 PM MDT
Astronomical Twilight 2:40 AM MDT 10:58 PM MDT
Moon 11:19 PM MDT (6/27) 10:19 AM MDT (6/27)
Length of Visible Light 16h 40m
Length of Day
15h 28m
Waning Gibbous, 76% of the Moon is Illuminated
Jun 27
Waning Gibbous
Jun 29
Last Quarter
Jul 8
New
Jul 15
First Quarter
Jul 22
Full

Hourly Weather History & Observations

Time (MDT) Temp. Heat Index Dew Point Humidity Pressure Visibility Wind Dir Wind Speed Gust Speed Precip Events Conditions
12:55 AM 66.9 °F - 59.0 °F 76% 29.94 in 10.0 mi Calm Calm - N/A   Clear
1:55 AM 66.9 °F - 60.1 °F 79% 29.93 in 10.0 mi NW 4.6 mph - N/A   Clear
2:55 AM 63.0 °F - 57.9 °F 84% 29.94 in 10.0 mi NNW 5.8 mph - N/A   Clear
3:55 AM 62.1 °F - 57.0 °F 84% 29.95 in 10.0 mi WSW 5.8 mph - N/A   Clear
4:55 AM 61.0 °F - 55.9 °F 83% 29.97 in 10.0 mi West 6.9 mph - N/A   Clear
5:55 AM 61.0 °F - 57.0 °F 87% 29.99 in 10.0 mi West 4.6 mph - N/A   Clear
6:55 AM 66.0 °F - 57.9 °F 75% 30.00 in 10.0 mi West 6.9 mph - N/A   Clear
7:55 AM 73.0 °F - 60.1 °F 64% 30.01 in 10.0 mi West 4.6 mph - N/A   Clear
8:55 AM 78.1 °F - 61.0 °F 56% 30.01 in 10.0 mi WSW 3.5 mph - N/A   Clear
9:55 AM 84.0 °F 82.9 °F 55.0 °F 37% 30.01 in 10.0 mi Variable 4.6 mph - N/A   Clear
10:55 AM 86.0 °F - 52.0 °F 31% 30.01 in 10.0 mi NW 4.6 mph - N/A   Clear
11:55 AM 87.1 °F - 52.0 °F 30% 30.01 in 10.0 mi West 6.9 mph - N/A   Clear
12:55 PM 88.0 °F - 52.0 °F 29% 30.01 in 10.0 mi WNW 3.5 mph - N/A   Clear
1:55 PM 91.0 °F 88.9 °F 55.0 °F 29% 29.99 in 10.0 mi West 11.5 mph - N/A   Clear
2:55 PM 91.9 °F 90.0 °F 55.0 °F 29% 29.98 in 10.0 mi West 12.7 mph - N/A   Clear
3:55 PM 89.1 °F 88.2 °F 59.0 °F 36% 29.99 in 10.0 mi SSW 8.1 mph - N/A   Mostly Cloudy
4:55 PM 90.0 °F 89.1 °F 59.0 °F 35% 29.97 in 10.0 mi South 8.1 mph - N/A   Clear
5:55 PM 91.0 °F 88.5 °F 53.1 °F 27% 29.96 in 10.0 mi NNW 16.1 mph 23.0 mph N/A   Clear
6:55 PM 89.1 °F 87.1 °F 55.0 °F 31% 29.96 in 10.0 mi NNW 12.7 mph - N/A   Clear
7:55 PM 84.0 °F 83.0 °F 55.9 °F 38% 29.97 in 10.0 mi North 15.0 mph - N/A   Clear
8:55 PM 78.1 °F - 57.0 °F 48% 30.00 in 10.0 mi North 10.4 mph - N/A   Clear
9:55 PM 72.0 °F - 55.9 °F 57% 30.04 in 10.0 mi North 5.8 mph - N/A   Clear
10:55 PM 66.0 °F - 57.0 °F 73% 30.06 in 10.0 mi NNW 6.9 mph - N/A   Clear
11:55 PM 64.0 °F - 55.0 °F 73% 30.07 in 10.0 mi NNW 6.9 mph - N/A   Clear